Regional Weather Roundup
Issued by NWS Green Bay, WI

Home | Current Version | Previous Version | Text Only | Print | Product List | Glossary On
Versions: 1 2 3 4 5 6 7 8 9 10 11 12 13 14 15 16 17 18 19 20 21 22 23 24 25 26 27 28 29 30 31 32 33 34 35 36 37 38 39 40 41 42 43 44 45 46 47 48 49 50
000
ASUS43 KGRB 171400
RWRGRB

NORTH-CENTRAL AND NORTHEAST WISCONSIN REGIONAL WEATHER ROUNDUP
NATIONAL WEATHER SERVICE GREEN BAY WI
900 AM CDT TUE OCT 17 2017

WIZ005-009-010>012-018-019-171500-
NORTH CENTRAL WISCONSIN

CITY           SKY/WX    TMP DP  RH WIND       PRES   REMARKS
IRONWOOD       MOSUNNY   51  39  63 SW7       29.98S
MANITOWISH WTR NOT AVBL
ARBOR VITAE    NOT AVBL
EAGLE RIVER    NOT AVBL
LAND O LAKES   NOT AVBL
RHINELANDER    SUNNY     48  40  73 SW6       30.02R
PHILLIPS       NOT AVBL
ANTIGO         NOT AVBL
TOMAHAWK       NOT AVBL
MERRILL        NOT AVBL
$$

WIZ013-073-171500-
NORTHEAST WISCONSIN

CITY           SKY/WX    TMP DP  RH WIND       PRES   REMARKS
IRON MOUNTAIN  SUNNY     50  37  61 W7        29.99R
MARINETTE      MOSUNNY   49  40  71 W8        30.01R
$$

WIZ017-030-035>037-045-171500-
CENTRAL WISCONSIN

CITY           SKY/WX    TMP DP  RH WIND       PRES   REMARKS
MEDFORD        NOT AVBL
WAUSAU         CLOUDY    48  40  73 CALM      30.03R
MOSINEE        MOSUNNY   45  43  93 CALM      30.05R
MARSHFIELD     CLOUDY    49  40  71 SW5       30.04R
WISC RAPIDS    SUNNY     51  42  71 SW6       30.07R
STEVENS POINT  NOT AVBL
WAUPACA        NOT AVBL
SHAWANO        NOT AVBL
CLINTONVILLE   NOT AVBL
WAUTOMA        SUNNY     48  43  82 CALM      30.08R
$$

WIZ038-039-048-051-171500-
FOX VALLEY

CITY           SKY/WX    TMP DP  RH WIND       PRES   REMARKS
NWS GREEN BAY  SUNNY     52  44  74 SW7       30.05R
APPLETON       SUNNY     54  37  54 SW14      30.04R
OSHKOSH        SUNNY     52  41  66 SW9       30.06R
FOND DU LAC      N/A     52  39  61 SW12G18   30.08R
$$

WIZ022-050-052-171500-
EAST CENTRAL WISCONSIN

CITY           SKY/WX    TMP DP  RH WIND       PRES   REMARKS
EPHRAIM        NOT AVBL
WASHINGTON ISL NOT AVBL
STURGEON BAY   MOSUNNY   54  42  64 W13       30.03R
MANITOWOC      SUNNY     56  41  57 W15G22    30.05R
SHEBOYGAN      SUNNY     56  43  61 SW15G21   30.07R
$$

LMZ563-521-522-541>543-171500-
LAKESHORE

STATION/POSITION TIME  TEMP    WIND        PRES    VSBY  WAVE
                       AIR SEA DIR/SP/G                  HT/PER
                 (UTC) (F)     (DEG/KT/KT) (MB)    (MI)  (FT/S)
SHEBOYGAN LKSHOR 1300   54     250/ 18/ 21 1017.2R
KEWAUNEE LKSHORE 1324   54     260/ 12/ 15 1015.8
NORTHPORT PIER   1340   55     260/  5/ 12 1015.6R
N MID LAKE BUOY  1250   56 60  250/ 21/ 25 1014.9R         6/ 6
S GREEN BAY BUOY 1330   53 58  220/ 16/ 19 1016.2R
SISTER BAY LKSHO 1319   55     240/ 16/ 17   N/A
MENOMINEE LKSHOR 1324   49     240/ 13/ 16 1015.7
$$




USA.gov is the U.S. government's official web portal to all federal, state and local government web resources and services.